Location: Dötzum
(52.0808°N, 9.8063°E)
Time: 05:19:53
(UTC+00:00)

Cosmos 1271 Rocket - Pass Details

Date: 27 May 2022
Orbit: 495 x 539 km, 81.2° (Epoch: 24 June)

Event Time Altitude Azimuth Distance (km) Brightness Sun altitude
Rises 02:09:03 0° 339° (NNW) 2,626 6.7 -7.7°
Reaches altitude 10° 02:11:19 10° 329° (NNW) 1,742 5.6 -7.5°
Maximum altitude 02:14:44 31° 266° (W) 916 3.6 -7.1°
Drops below altitude 10° 02:18:10 10° 203° (SSW) 1,752 4.8 -6.8°
Enters shadow 02:18:51 - 199° (SSW) 2,013 5.1 -6.7°
